Wind_Speed
9 9 9 9 7 12 19 14 14 11 7 9 10 25 20 13 12 11 6 9 15 17 20 24 26 28 27 25 23 20 18 17 14 11 7 5 6 8 9 11 10 9 9 10 11 11 12 13 14
7 8 8 7 11 16 16 10 11 7 8 15 12 20 21 19 21 13 16 15 12 21 23 29 31 31 28 25 23 21 20 18 16 12 8 6 8 10 12 11 11 10 10 11 12 12 12 13 13
5 7 5 8 12 16 11 4 7 8 9 11 14 13 15 18 22 23 20 19 19 17 27 33 32 31 28 26 25 24 22 20 18 15 12 11 12 13 13 13 12 12 11 11 11 11 12 12 13
5 9 8 9 13 10 8 6 10 10 9 10 9 8 11 12 20 17 26 28 22 25 32 31 35 32 31 29 28 25 23 21 20 17 15 13 14 14 14 14 13 11 10 10 10 10 12 13 15
7 8 9 10 10 10 9 8 10 6 5 6 8 9 9 5 12 13 25 20 20 27 36 36 37 38 35 32 28 26 24 22 20 17 15 14 15 15 15 14 11 10 9 9 9 10 12 13 16
5 6 9 10 5 6 6 6 8 6 5 4 5 7 8 10 12 10 14 15 18 26 16 29 27 33 36 38 37 33 26 23 20 19 17 16 17 17 15 13 11 9 8 8 8 9 10 11 15
6 7 10 9 7 3 1 6 10 15 8 7 8 9 10 12 10 9 10 10 15 14 12 28 27 37 42 39 38 34 29 22 22 20 17 18 18 16 13 10 8 6 6 6 6 7 8 13 15
6 6 8 7 4 3 4 7 6 13 8 8 7 8 8 10 11 10 10 11 12 14 15 19 23 19 25 17 13 28 24 24 23 21 19 18 18 15 12 8 6 4 3 4 5 7 11 13 14
7 6 8 5 4 4 7 5 6 16 12 12 11 10 12 9 9 9 10 10 10 15 15 14 19 18 21 18 15 15 29 26 25 22 22 21 18 14 10 7 5 3 2 3 6 6 10 11 12
3 6 4 4 5 7 11 8 3 18 13 10 8 5 9 9 9 9 10 8 7 10 18 19 21 22 22 23 11 26 40 34 35 28 24 19 16 12 8 6 3 1 3 5 5 9 11 13 13
6 5 5 5 7 10 9 10 11 12 8 9 9 6 7 8 7 8 8 9 7 8 10 14 17 16 14 16 15 35 46 40 37 34 23 19 13 10 7 3 1 3 5 5 8 10 12 13 12
8 7 9 6 4 10 10 13 9 9 7 9 10 11 11 8 7 8 10 11 8 15 18 14 20 14 13 16 25 40 39 31 29 24 21 17 15 10 8 5 3 4 7 9 10 12 15 13 10
11 7 10 10 11 10 8 7 8 10 8 10 10 11 12 9 8 10 12 14 12 14 14 13 16 15 19 28 25 30 34 28 23 23 22 19 13 11 8 6 5 7 8 10 12 13 13 9 9
9 8 11 11 14 13 5 5 5 8 8 5 10 8 6 6 3 6 13 18 12 10 14 14 23 34 32 33 38 33 27 24 24 23 20 16 15 13 10 9 8 7 9 11 11 11 9 10 12
9 9 9 8 10 8 3 6 5 8 4 6 3 9 12 13 7 13 18 18 10 16 19 23 34 29 32 24 25 26 26 25 24 22 21 17 15 13 11 10 9 8 12 12 10 9 11 12 15
10 10 10 6 5 5 4 1 5 5 3 3 4 6 12 13 12 17 18 17 19 20 28 29 26 23 24 26 26 24 24 25 24 22 19 18 17 15 12 11 11 13 13 12 10 11 12 15 17
12 12 7 4 6 7 4 3 9 8 4 4 4 6 4 9 14 19 17 15 14 17 19 20 21 22 22 21 23 24 23 23 23 22 20 19 18 16 14 13 13 14 15 13 12 12 14 16 19
10 10 9 6 5 5 7 8 13 9 7 5 4 7 6 4 10 12 14 17 18 17 18 19 18 18 20 23 23 23 23 23 22 21 20 18 17 16 15 15 14 17 17 14 14 15 17 20 21
8 8 6 3 5 7 8 10 10 6 4 5 5 9 10 9 8 10 14 16 16 18 18 18 20 22 23 23 23 22 20 18 15 16 17 19 19 17 17 15 17 19 18 17 17 19 21 22 22
8 10 8 6 7 6 8 10 9 4 4 3 3 5 10 14 14 13 14 16 17 17 17 18 17 17 16 16 16 16 15 15 16 17 16 17 17 18 18 19 20 20 20 19 20 21 23 24 26
8 9 6 4 5 9 10 11 9 11 7 6 7 9 12 16 13 15 18 18 18 18 18 18 17 17 17 17 18 18 18 17 16 15 13 16 18 19 22 22 21 21 22 21 22 23 25 30 31
12 10 8 7 10 11 5 4 5 6 8 10 12 14 14 15 15 17 18 19 19 19 19 19 19 19 19 20 20 19 18 17 16 16 16 17 20 22 23 24 22 24 24 23 25 27 30 31 37
12 10 8 9 10 8 8 9 5 5 6 9 12 15 18 16 16 18 19 19 21 23 22 21 19 20 20 20 20 20 20 19 20 21 23 24 24 26 26 26 28 27 26 27 29 30 33 32 36
11 8 9 6 6 9 5 7 5 8 6 7 11 12 17 22 21 20 22 23 21 23 24 23 21 20 19 18 19 19 20 22 21 23 25 28 28 30 30 30 31 29 30 29 30 30 35 38 34
12 11 9 5 6 4 4 6 11 5 6 8 12 14 14 16 27 26 24 22 24 25 24 24 22 19 18 17 18 19 21 22 28 23 24 27 28 30 30 33 32 31 31 29 30 28 32 32 33
15 13 7 5 4 4 4 6 2 6 9 7 9 14 16 19 24 32 29 26 23 22 23 23 21 22 22 17 18 18 22 27 28 26 22 27 31 32 30 31 30 31 31 33 26 28 35 31 36
13 12 9 3 3 3 6 6 9 2 7 6 3 6 9 10 15 27 31 32 29 28 26 24 24 25 26 25 23 24 27 29 30 24 24 30 33 31 37 32 31 35 33 27 27 38 37 34 39
10 13 7 7 4 5 4 5 6 2 2 7 5 4 1 5 11 17 25 28 30 31 30 29 27 27 28 28 29 30 30 31 31 28 27 31 31 28 32 30 31 34 29 32 31 35 35 37 29
15 10 7 4 4 3 3 5 5 4 2 4 4 4 4 3 1 6 16 21 25 28 29 28 26 27 30 32 32 30 29 31 32 30 29 30 34 29 34 36 42 15 24 35 34 36 31 35 35
15 14 13 10 6 7 5 12 13 15 10 6 7 6 5 7 5 4 4 16 20 23 28 30 31 30 29 29 30 30 30 30 29 30 31 36 27 29 36 38 32 22 28 31 30 34 36 38 39
Wind_Direction
272 277 291 279 256 245 253 251 247 261 262 234 249 211 237 259 252 231 253 253 237 229 221 217 210 205 201 197 196 198 202 204 203 202 188 191 166 145 134 121 115 112 102 99 96 96 88 81 68
275 288 285 254 248 248 251 236 254 249 260 258 241 227 236 241 248 251 262 261 258 220 216 215 206 204 201 200 197 200 203 203 202 198 191 193 171 157 138 129 125 116 109 105 99 86 73 61 52
278 289 269 251 252 259 288 254 255 287 294 233 229 232 241 248 252 246 254 278 259 253 216 213 210 203 201 198 200 200 203 204 198 195 192 187 173 150 140 137 128 121 112 97 80 69 60 53 44
295 295 272 243 252 267 267 279 287 287 274 235 219 234 257 252 262 273 247 254 236 243 219 211 207 207 201 200 199 200 201 200 197 196 192 179 166 148 144 138 131 118 101 84 78 65 54 46 38
289 288 256 251 261 276 264 286 316 295 236 227 228 251 246 258 249 250 243 247 228 217 214 205 201 195 194 193 195 200 201 199 190 195 185 180 162 155 148 139 126 113 102 88 71 56 48 39 32
281 281 258 250 290 264 283 307 359 319 234 231 223 232 245 234 242 245 245 235 236 233 142 193 194 190 184 183 181 179 185 186 185 188 175 171 160 160 147 139 132 115 98 78 54 45 40 31 25
254 273 277 275 289 259 302 306 326 342 297 244 244 243 246 242 245 232 227 222 238 243 226 203 212 205 197 184 165 163 165 171 183 176 160 169 166 158 148 145 126 102 81 56 47 38 36 19 7
265 267 275 277 264 248 301 360 43 329 296 304 280 267 258 241 247 236 218 220 230 235 223 217 213 213 182 132 188 142 154 165 180 163 162 175 165 155 151 133 109 90 68 42 28 33 21 4 352
285 268 273 279 238 235 303 346 338 324 320 315 302 258 258 249 227 239 231 227 225 234 249 237 225 190 269 261 191 187 163 175 166 163 180 174 165 160 151 147 144 132 72 18 16 16 0 356 347
248 282 276 252 244 288 289 300 281 306 317 325 312 252 254 254 229 216 229 221 222 219 224 234 226 246 239 242 241 201 167 163 163 167 183 172 167 161 161 169 164 154 0 352 356 345 342 333 334
255 271 276 279 275 269 258 239 279 260 304 318 306 286 283 247 242 232 234 235 203 204 194 222 218 207 233 257 223 188 171 170 149 172 176 176 163 173 175 183 240 337 330 327 310 312 314 323 322
257 270 275 292 285 258 258 254 281 290 290 305 296 280 266 240 239 242 239 245 220 220 201 213 194 225 229 199 190 183 184 159 165 162 174 173 179 184 189 201 244 287 286 296 304 308 313 318 321
262 264 270 258 239 288 269 254 273 298 305 305 288 267 246 233 241 262 257 222 210 224 225 230 227 165 163 157 170 164 161 168 160 172 180 182 186 190 204 221 252 265 284 293 299 309 314 318 326
260 259 283 264 227 253 257 264 273 296 307 280 300 262 214 194 149 285 189 173 186 200 171 176 145 140 154 159 161 166 165 166 179 183 186 188 196 202 211 226 243 266 298 303 303 308 315 324 324
257 265 277 250 251 259 237 262 287 311 308 276 87 106 141 136 118 101 119 158 157 155 153 153 147 152 156 161 169 172 168 172 177 187 193 199 207 218 222 238 251 278 306 300 306 315 313 314 328
257 256 244 234 240 223 247 10 330 300 300 265 220 106 135 137 143 132 123 126 129 125 142 146 147 151 165 164 169 176 179 181 185 193 201 208 216 223 233 243 261 278 307 310 310 301 307 318 323
238 253 240 206 206 249 241 279 315 327 308 230 235 239 130 160 162 164 173 165 158 156 155 157 165 171 172 178 183 186 184 187 193 200 208 215 224 229 237 248 263 290 302 301 293 297 303 310 321
215 228 227 235 227 214 237 264 293 311 289 210 212 228 203 145 181 173 178 174 173 164 172 176 182 183 188 191 192 191 196 197 199 205 212 224 233 237 246 255 273 287 292 291 290 295 304 310 319
206 210 218 219 198 217 256 278 285 296 255 237 204 215 200 184 183 192 183 180 178 173 174 175 179 182 186 186 190 196 199 204 209 215 220 226 233 239 248 258 267 280 291 292 295 297 302 312 311
202 219 220 226 197 250 267 281 273 303 135 164 197 190 204 203 202 198 194 188 184 178 174 176 178 181 182 183 187 193 201 210 216 221 227 234 239 244 255 257 265 279 287 289 290 293 296 298 299
225 239 218 238 255 260 272 249 235 211 210 215 191 187 194 214 208 196 191 188 182 177 177 177 181 183 184 188 195 199 208 212 223 232 240 243 247 250 254 252 261 271 279 284 286 291 291 291 291
232 237 241 250 263 261 239 233 199 218 242 239 209 207 208 206 203 198 191 190 191 187 187 188 192 196 201 208 214 216 223 229 232 233 240 244 246 253 262 259 263 266 272 281 284 284 285 292 292
235 248 239 248 273 246 224 252 193 221 258 242 225 219 216 220 215 208 201 199 197 196 195 198 203 207 212 218 227 232 235 239 247 246 246 253 259 263 265 258 265 267 273 276 279 282 285 293 296
227 218 237 252 231 233 210 248 224 231 240 250 232 238 230 221 218 209 217 216 212 209 208 209 214 219 223 227 234 243 248 249 256 255 252 252 255 260 263 265 266 267 271 275 280 286 291 299 303
193 192 218 203 199 241 168 229 263 273 270 264 237 231 242 233 220 214 214 214 215 217 219 223 225 230 240 245 250 258 260 258 254 248 262 263 265 265 269 271 266 266 268 273 277 289 292 298 301
203 204 223 239 203 170 193 241 165 290 294 285 271 245 252 251 228 214 216 215 219 223 224 227 234 239 241 246 257 266 259 259 261 261 255 276 274 269 275 269 261 264 266 273 276 291 277 291 299
206 210 216 203 226 263 247 259 270 302 299 282 265 238 234 234 226 221 216 220 220 227 232 236 238 243 249 253 259 268 268 271 283 282 265 271 272 266 268 266 260 261 270 275 291 273 284 294 297
199 206 181 206 216 234 180 254 286 318 123 112 49 38 39 227 220 215 216 217 220 226 233 238 242 248 253 258 261 264 268 270 276 277 277 275 274 274 266 263 259 259 281 285 285 300 286 279 302
213 207 210 215 234 262 268 273 238 199 247 302 343 343 351 320 350 233 233 228 223 221 226 231 236 243 246 248 253 257 257 261 271 274 275 269 274 263 262 270 255 266 307 282 276 280 299 279 290
215 221 214 231 202 227 254 264 258 256 269 249 286 296 286 288 299 268 222 225 223 223 227 232 235 241 246 252 256 259 262 266 271 272 270 288 279 282 260 263 250 297 306 293 285 288 273 280 292
Height
3147 3147 3148 3148 3153 3147 3142 3141 3142 3142 3141 3140 3137 3139 3145 3142 3141 3146 3141 3140 3142 3139 3139 3141 3144 3146 3149 3153 3157 3160 3163 3166 3169 3171 3173 3174 3176 3177 3177 3179 3180 3182 3182 3183 3183 3183 3184 3184 3184
3145 3146 3146 3147 3147 3140 3137 3138 3140 3140 3139 3137 3136 3138 3139 3142 3140 3140 3141 3139 3139 3139 3137 3137 3140 3143 3148 3152 3156 3160 3162 3165 3168 3171 3173 3174 3176 3177 3178 3179 3181 3182 3184 3184 3185 3185 3184 3185 3184
3144 3144 3146 3146 3142 3138 3135 3138 3138 3137 3135 3135 3135 3136 3138 3137 3137 3137 3138 3137 3135 3136 3134 3137 3140 3144 3148 3152 3155 3158 3161 3164 3168 3171 3173 3174 3176 3177 3178 3180 3181 3182 3184 3185 3185 3185 3185 3184 3184
3143 3144 3144 3143 3138 3139 3139 3138 3136 3135 3133 3132 3134 3134 3135 3133 3135 3134 3134 3133 3130 3131 3133 3133 3136 3141 3146 3150 3153 3156 3159 3163 3168 3170 3172 3173 3175 3177 3179 3180 3181 3183 3184 3185 3185 3185 3185 3185 3184
3142 3142 3143 3139 3138 3138 3137 3135 3134 3133 3132 3130 3130 3129 3130 3129 3133 3131 3129 3128 3126 3124 3118 3128 3129 3135 3141 3145 3150 3155 3160 3163 3167 3170 3171 3172 3174 3177 3178 3180 3181 3183 3183 3185 3185 3185 3185 3185 3183
3143 3141 3141 3136 3136 3136 3136 3134 3132 3132 3131 3130 3130 3128 3127 3126 3126 3125 3125 3125 3122 3117 3095 3120 3117 3128 3131 3134 3140 3147 3156 3162 3165 3168 3169 3172 3174 3176 3178 3179 3181 3182 3183 3184 3184 3185 3185 3184 3182
3141 3141 3138 3137 3136 3135 3135 3132 3131 3131 3130 3130 3129 3128 3126 3125 3123 3123 3123 3124 3121 3120 3119 3122 3126 3126 3128 3130 3131 3139 3151 3160 3165 3168 3169 3172 3174 3177 3179 3180 3180 3181 3183 3184 3184 3185 3184 3182 3181
3139 3139 3138 3136 3135 3134 3133 3131 3131 3131 3129 3127 3126 3125 3124 3124 3122 3122 3121 3121 3121 3123 3125 3127 3127 3130 3129 3131 3138 3135 3153 3159 3166 3167 3169 3173 3175 3176 3178 3179 3179 3181 3182 3183 3183 3183 3182 3181 3182
3137 3139 3135 3135 3134 3133 3132 3131 3129 3129 3127 3124 3123 3122 3123 3122 3121 3120 3120 3119 3120 3121 3122 3122 3125 3129 3132 3130 3136 3142 3146 3157 3162 3167 3170 3171 3174 3176 3177 3179 3179 3180 3181 3182 3181 3181 3181 3181 3181
3137 3137 3135 3134 3134 3133 3131 3130 3128 3127 3125 3122 3120 3120 3120 3120 3119 3119 3118 3120 3118 3119 3119 3122 3126 3129 3132 3135 3136 3140 3143 3151 3157 3163 3168 3172 3174 3175 3176 3178 3179 3179 3180 3180 3180 3180 3181 3181 3180
3136 3135 3134 3133 3132 3131 3130 3128 3127 3126 3126 3122 3118 3116 3115 3115 3115 3117 3116 3114 3116 3118 3120 3122 3125 3126 3128 3129 3133 3138 3142 3150 3155 3159 3166 3172 3173 3176 3176 3178 3179 3179 3179 3179 3179 3180 3180 3179 3178
3134 3133 3132 3130 3130 3128 3127 3125 3126 3125 3124 3121 3118 3115 3114 3113 3113 3113 3114 3114 3115 3116 3117 3121 3123 3126 3129 3129 3132 3140 3144 3153 3154 3159 3169 3171 3174 3174 3176 3177 3178 3178 3178 3179 3179 3178 3177 3176 3176
3131 3132 3130 3129 3127 3125 3125 3125 3125 3124 3122 3120 3117 3114 3113 3113 3114 3112 3113 3113 3114 3115 3117 3119 3121 3123 3126 3131 3138 3143 3148 3152 3156 3163 3169 3170 3173 3174 3175 3176 3177 3178 3176 3176 3176 3174 3173 3174 3174
3131 3129 3128 3126 3125 3124 3125 3124 3124 3122 3121 3120 3116 3113 3114 3114 3115 3111 3110 3112 3115 3115 3116 3118 3119 3124 3129 3135 3140 3145 3149 3152 3158 3164 3168 3170 3172 3173 3174 3175 3176 3176 3175 3174 3173 3172 3172 3172 3172
3128 3127 3126 3125 3125 3124 3125 3123 3123 3121 3120 3120 3117 3115 3115 3117 3117 3113 3111 3115 3116 3117 3118 3122 3125 3128 3134 3139 3143 3147 3150 3155 3159 3164 3166 3168 3170 3172 3172 3173 3173 3172 3172 3172 3171 3170 3170 3170 3168
3127 3126 3123 3123 3123 3123 3124 3119 3122 3120 3120 3120 3119 3118 3117 3117 3118 3120 3120 3123 3124 3124 3124 3127 3130 3135 3138 3140 3144 3148 3152 3155 3158 3162 3164 3167 3169 3170 3170 3170 3170 3169 3169 3169 3168 3168 3167 3166 3163
3124 3120 3122 3122 3122 3123 3123 3120 3120 3119 3119 3119 3119 3118 3119 3119 3120 3121 3122 3125 3127 3129 3130 3132 3135 3137 3139 3142 3146 3149 3152 3155 3158 3160 3163 3165 3165 3166 3167 3167 3168 3165 3166 3165 3165 3163 3163 3161 3159
3120 3121 3121 3119 3121 3120 3121 3121 3119 3118 3118 3118 3118 3117 3119 3120 3122 3123 3124 3124 3126 3128 3131 3132 3134 3137 3140 3142 3145 3149 3152 3154 3155 3158 3160 3161 3162 3163 3163 3164 3163 3163 3162 3161 3161 3159 3159 3157 3156
3119 3120 3119 3120 3120 3121 3120 3119 3118 3116 3116 3116 3117 3118 3118 3120 3121 3123 3124 3126 3128 3129 3131 3134 3137 3139 3141 3143 3145 3148 3150 3152 3154 3156 3157 3158 3159 3159 3160 3159 3159 3159 3157 3158 3156 3155 3155 3154 3153
3119 3118 3117 3118 3118 3119 3118 3117 3115 3114 3115 3116 3117 3117 3118 3119 3120 3122 3123 3125 3127 3129 3131 3134 3137 3139 3141 3143 3146 3148 3150 3151 3152 3153 3154 3155 3155 3157 3155 3155 3155 3154 3154 3153 3152 3151 3150 3149 3148
3118 3117 3118 3117 3117 3116 3115 3112 3112 3113 3114 3114 3115 3116 3117 3118 3119 3121 3122 3124 3127 3129 3131 3133 3136 3138 3140 3142 3144 3145 3146 3148 3150 3150 3150 3150 3152 3152 3151 3150 3150 3150 3149 3148 3146 3146 3145 3143 3142
3115 3116 3117 3116 3116 3111 3113 3108 3109 3111 3111 3112 3113 3114 3116 3117 3118 3119 3121 3123 3125 3128 3130 3132 3134 3136 3138 3141 3143 3143 3144 3146 3146 3146 3146 3146 3147 3146 3145 3145 3144 3145 3143 3142 3141 3140 3139 3137 3134
3114 3113 3115 3115 3113 3113 3111 3111 3104 3108 3108 3109 3111 3112 3114 3115 3117 3118 3120 3122 3124 3126 3128 3130 3132 3133 3135 3137 3138 3140 3141 3141 3140 3141 3141 3142 3141 3140 3140 3139 3139 3138 3137 3135 3135 3133 3132 3130 3126
3110 3112 3113 3112 3112 3109 3108 3109 3102 3105 3107 3107 3107 3108 3110 3111 3113 3116 3117 3119 3121 3123 3125 3127 3129 3130 3132 3133 3134 3136 3136 3136 3136 3136 3136 3135 3134 3133 3133 3133 3133 3131 3129 3128 3127 3126 3124 3121 3117
3107 3109 3108 3110 3108 3105 3107 3108 3103 3104 3104 3104 3104 3104 3105 3106 3108 3111 3113 3115 3117 3118 3120 3122 3124 3126 3127 3129 3130 3131 3132 3132 3131 3130 3131 3130 3128 3127 3126 3125 3124 3123 3122 3121 3119 3118 3115 3113 3110
3104 3105 3103 3103 3103 3102 3106 3102 3099 3101 3100 3100 3100 3100 3100 3100 3102 3104 3108 3111 3114 3116 3117 3119 3121 3123 3124 3125 3126 3127 3127 3126 3126 3124 3120 3123 3122 3120 3118 3117 3116 3116 3114 3112 3111 3109 3107 3104 3102
3101 3102 3103 3104 3104 3105 3101 3100 3099 3099 3098 3098 3097 3097 3097 3097 3098 3100 3103 3106 3109 3111 3114 3116 3117 3119 3120 3121 3121 3121 3122 3120 3118 3116 3116 3116 3114 3111 3110 3110 3109 3107 3105 3104 3103 3099 3098 3094 3092
3098 3099 3101 3101 3101 3099 3097 3098 3096 3098 3097 3097 3097 3097 3096 3096 3096 3097 3098 3100 3103 3105 3107 3110 3112 3114 3114 3114 3114 3115 3115 3114 3112 3111 3110 3109 3107 3104 3103 3103 3102 3099 3100 3097 3095 3091 3089 3087 3084
3095 3096 3097 3098 3099 3096 3096 3095 3096 3097 3097 3096 3096 3096 3095 3095 3094 3095 3096 3096 3098 3100 3102 3104 3106 3106 3106 3107 3107 3108 3107 3107 3106 3105 3103 3101 3097 3098 3097 3095 3091 3089 3089 3089 3087 3084 3080 3078 3075
3089 3092 3094 3094 3096 3096 3096 3093 3092 3092 3092 3094 3094 3093 3093 3093 3093 3093 3093 3094 3095 3096 3098 3099 3100 3102 3102 3102 3101 3101 3100 3100 3099 3097 3095 3093 3091 3091 3086 3082 3081 3079 3081 3079 3079 3075 3072 3069 3066